Regional Weather Roundup
Issued by NWS

Home | Current Version | Previous Version | Text Only | Print | Product List | Glossary On
Versions: 1 2 3 4 5 6 7 8 9 10 11 12 13 14 15 16 17 18 19 20 21 22 23 24 25 26 27 28 29 30 31 32 33 34 35 36 37 38 39 40 41 42 43 44 45 46 47 48 49 50
970
ASUS44 KFWD 292310
RWRTX
NORTH TEXAS HOURLY WEATHER ROUNDUP
NATIONAL WEATHER SERVICE FORT WORTH TX
600 PM CDT FRI JUL 29 2016

NOTE: "FAIR" INDICATES FEW OR NO CLOUDS BELOW 12,000 FEET WITH NO
SIGNIFICANT WEATHER AND/OR OBSTRUCTIONS TO VISIBILITY.

TXZ118-119-300000-
DALLAS/FORT WORTH METROPLEX

CITY           SKY/WX    TMP DP  RH WIND       PRES   REMARKS
DFW AIRPORT    PTSUNNY   94  69  44 S10       29.90F HX  99
DALLAS LOVE    PTSUNNY   94  71  47 SW10G18   29.90F HX 101
FTW MEACHAM    MOSUNNY   94  70  45 S5        29.91F HX 100
DAL-EXECUTIVE  SUNNY     91  67  44 S6        29.91F HX  94
FTW-ALLIANCE   PTSUNNY   92  70  48 SW8       29.91S HX  97
FTW-NAS-JRB    PTSUNNY   94  69  44 S8        29.91F HX  99
FTW-SPINKS     SUNNY     93  66  40 S9        29.92F HX  96
ARLINGTON      SUNNY     93  65  39 S8        29.91F HX  95
GRAND PRAIRIE  SUNNY     93  66  40 S7        29.92F HX  96
ADDISON        MOSUNNY   93  70  46 SW7G17    29.92S HX  99
MESQUITE       SUNNY     93  66  40 S9        29.92F HX  96
LANCASTER      SUNNY     95  66  38 SW8       29.92F HX  98
$$

TXZ091>094-102>105-117-120-121-131>134-300000-
NORTH CENTRAL TEXAS

CITY           SKY/WX    TMP DP  RH WIND       PRES   REMARKS
SHRMAN/DENISON SUNNY     95  71  44 W12       29.93S HX 102
GAINESVILLE    SUNNY     92  71  50 S8        29.94S HX  98
BOWIE          CLOUDY    94  70  45 S7        29.93F HX 100
BRIDGEPORT     PTSUNNY   91  71  53 S7        29.95S HX  97
DECATUR        PTSUNNY   91  68  46 SW12      29.95S HX  95
DENTON         PTSUNNY   91  73  55 SW9       29.91S HX  99
MCKINNEY       SUNNY     94  69  44 SW9       29.90F HX  99
GREENVILLE     SUNNY     95  68  41 SW12      29.91F HX  99
ROCKWALL       SUNNY     93  71  48 S14G20    29.90F HX  99
TERRELL        MOSUNNY   93  69  45 S13       29.92F HX  98
WAXAHACHIE     SUNNY     93  70  46 S9        29.93F HX  98
CLEBURNE       SUNNY     95  68  41 S10       29.93F HX  99
GRANBURY       SUNNY     97  63  32 S9        29.92F HX  98
$$

TXZ083>090-098>101-113>116-127>130-139>142-154-155-300000-
WESTERN NORTH TEXAS

CITY           SKY/WX    TMP DP  RH WIND       PRES   REMARKS
WICHITA FALLS  SUNNY     94  66  39 S9        29.91F HX  97
WF-KICKAPOO    SUNNY     97  62  30 SE7       29.92F HX  98
VERNON         SUNNY     97  52  21 SW7       29.93F HX  94
ABILENE        PTSUNNY   91  67  44 SE13      29.96F HX  94
ABILENE-DYESS  SUNNY     94  67  40 E14       29.94F HX  98
CISCO          MOSUNNY   93  64  38 S10       29.96F HAZE    HX  95
BRECKENRIDGE   CLOUDY    93  66  41 S6        29.94F HAZE    HX  95
GRAHAM         CLOUDY    91  68  46 SE7       29.93F HX  95
MINERAL WELLS  PTSUNNY   89  71  55 CALM      29.92F HX  95
STEPHENVILLE   SUNNY     93  65  38 S8        29.97F HX  95
COMANCHE       MOSUNNY   92  67  42 S12G17    29.97F HX  95
BROWNWOOD      LGT RAIN  93  64  38 S5        29.96S HX  95
COLEMAN        SUNNY     94  62  34 S7        29.96F HX  95
$$

TXZ143>147-156>162-174-175-300000-
CENTRAL TEXAS

CITY           SKY/WX    TMP DP  RH WIND       PRES   REMARKS
WACO           MOSUNNY   93  68  43 W3        29.92F HX  97
WACO-TSTC      SUNNY     91  72  52 CALM      29.92  HX  98
WACO-MCGREGOR  CLOUDY    98  63  31 VRB6      29.93F HX 100
HILLSBORO      MOSUNNY   92  68  45 S12       29.93F HX  96
CORSICANA      CLOUDY    92  71  50 S9        29.94F HX  98
MEXIA          MOSUNNY   94  65  38 S8G22     29.92F HX  97
HEARNE         SUNNY     95  69  43 CALM      29.93F HX 100
CAMERON        PTSUNNY   97  67  37 SE6       29.92F HX 101
TEMPLE         SUNNY     96  67  38 SE9G18    29.93F HAZE    HX 100
KILLEEN        MOSUNNY   93  65  39 S10       29.92F HX  95
KILLEEN-SKYLRK MOSUNNY   94  67  41 S8        29.93F HX  97
FORT HOOD      MOSUNNY   93  66  40 S9        29.91F HX  96
GATESVILLE     MOSUNNY   95  63  34 S6        29.96S HX  96
HAMILTON       PTSUNNY   95  67  39 SW8       29.97F HX  98
LAMPASAS       MOSUNNY   96  66  36 S9        29.94F HX  99
$$

TXZ095>097-106>112-122>126-135>138-148>153-164>167-300000-
EAST TEXAS

CITY           SKY/WX    TMP DP  RH WIND       PRES   REMARKS
PARIS          MOSUNNY   93  66  40 SW10      29.91S HX  96
SULPHUR SPRNGS SUNNY     93  73  51 S14       29.93F HX 101
MOUNT PLEASANT MOSUNNY   92  71  50 S12       29.93F HX  99
GILMER         MOSUNNY   87  71  59 SW3       29.94F HX  93
MINEOLA        CLOUDY    90  73  58 S8        29.95F HX  98
TYLER          PTSUNNY   90  72  55 SW7       29.95F HX  97
LONGVIEW       SUNNY     91  68  46 SW9       29.93F HX  95
MARSHALL       SUNNY     90  69  50 SW7       29.96S HX  94
ATHENS         CLOUDY    90  72  55 S6        29.93F HX  96
PALESTINE      CLOUDY    90  73  58 CALM      29.96F HX  98
JACKSONVILLE   CLOUDY    88  74  62 SW7       29.99S HX  97
HENDERSON      MOSUNNY   89  70  53 SW5       29.95F HX  94
CENTER         CLEAR     92  71  49 W5        29.96F HX  98
NACOGDOCHES    CLOUDY   N/A N/A N/A CALM      29.94F
LUFKIN         SUNNY     89  67  47 W5        29.95F HX  92
$$

SUPPLEMENTAL OBSERVATIONS (CENTRAL)

CITY           SKY/WX    TMP DP  RH WIND       PRES   REMARKS
CADDO GRASSLND   N/A     93  70  46 SW7G15      N/A  HX  99
PAT MAYSE LAKE   N/A     93  70  46 S10         N/A  HX  99
MCGREGOR         N/A     93  64  38 S6          N/A  HX  95
TEMPLE           N/A     95  64  36 S8          N/A  HX  97
$$

SUPPLEMENTAL OBSERVATIONS (WEST)

CITY           SKY/WX    TMP DP  RH WIND       PRES   REMARKS
MILLERS CREEK    N/A     97  64  34 SW6         N/A  HX  99
POSSUM KINGDOM   N/A     91  70  49 SE5         N/A  HX  97
LBJ GRASSLAND    N/A     90  72  55 S7          N/A  HX  96
GRANBURY         N/A     97  64  34 S12         N/A  HX  99
HAMBY            N/A     91  68  46 SE7         N/A  HX  95
$$

SUPPLEMENTAL OBSERVATIONS (EAST)

CITY           SKY/WX    TMP DP  RH WIND       PRES   REMARKS
TEXARKANA        N/A     91  75  59 S1          N/A  HX 102
LINDEN           N/A     93  72  49 SW5         N/A  HX 100
HENDERSON        N/A     91  70  49 SW7         N/A  HX  97
N SABINE NF      N/A     91  70  49 MISG        N/A  HX  97
$$

SUPPLEMENTAL OBSERVATIONS ARE A COLLECTION OF AUTOMATED INSTRUMENTS
THAT ARE MAINTAINED BY A VARIETY OF FEDERAL AND STATE AGENCIES.
CERTAIN ELEMENTS...SUCH AS HUMIDITY VALUES AND SUSTAINED WIND
SPEEDS...MAY BE APPROXIMATED.





USA.gov is the U.S. government's official web portal to all federal, state and local government web resources and services.